User: anonymous   Login
Location: Mentone
(34.5413°N, 85.5351°W)
Time: 14:17:02
(UTC-06:00)
Language:

Centaur AC-72 - Orbit

View from above orbital plane
View from above orbital plane
View from above satellite
View from above satellite

Ground track
Ground track

The orbit data is extracted from the following two-line orbital elements,

1 21907U 92013B   15060.54351002 -.00000205  00000-0  00000+0 0  9993
2 21907 019.0352 178.3476 6941041 022.4805 008.9977 02.25606904189342
Epoch (UTC): 01 March 2015 13:02:39
Eccentricity: 0.6941041
inclination: 19.0352°
perigee height: 1133 km
apogee height: 35223 km
right ascension of ascending node: 178.3476°
argument of perigee: 22.4805°
revolutions per day: 2.25606904
mean anomaly at epoch: 8.9977°
orbit number at epoch: 18934

The dashed part of the orbit path shows where the satellite is in the earth's shadow,  

DLR